, AK

(GMT )
Aniak

Weather History for PANI - May, 2014

Change the Weather History Date:

Saturday, May 17, 2014

  Actual Average Record
Temperature  
Mean Temperature 52 °F -  
Max Temperature 64 °F 50 °F 69 °F (1999)
Min Temperature 39 °F 33 °F 19 °F (2013)
Degree Days  
Heating Degree Days 14    
Growing Degree Days 2 (Base 50)    
Moisture  
Dew Point 39 °F    
Average Humidity 72    
Maximum Humidity 93    
Minimum Humidity 42    
Precipitation  
Precipitation 0.00 in - - ()
Sea Level Pressure  
Sea Level Pressure 30.23 in    
Wind  
Wind Speed 5 mph (West)    
Max Wind Speed 13 mph    
Max Gust Speed 20 mph    
Visibility 10 miles    
Events      
Averages and records for this station are not official NWS values.
T = Trace of Precipitation, MM = Missing Value Source: NWS Daily Summary

Daily Weather History Graph

Daily Weather History Graph

Search for Another Location

Airport or City:

Astronomy

May. 17, 2014 Rise Set
Actual Time 5:42 AM AKDT 11:28 PM AKDT
Civil Twilight 4:26 AM AKDT 12:45 AM AKDT
Nautical Twilight Sun does not set Sun does not set
Astronomical Twilight Sun does not set Sun does not set
Moon 1:39 AM AKDT (5/17) 8:43 AM AKDT (5/17)
Length of Visible Light 20h 19m
Length of Day
17h 46m
Waning Gibbous, 88% of the Moon is Illuminated
May 17
Waning Gibbous
May 21
Last Quarter
May 28
New
Jun 5
First Quarter
Jun 12
Full

Hourly Weather History & Observations

Time (AKDT) Temp. Windchill Dew Point Humidity Pressure Visibility Wind Dir Wind Speed Gust Speed Precip Events Conditions
12:16 AM 55.4 °F - 44.6 °F 67% 30.23 in 10.0 mi Calm Calm - N/A   Clear
12:36 AM 55.4 °F - 44.6 °F 67% 30.23 in 10.0 mi Calm Calm - N/A   Clear
12:56 AM 53.6 °F - 44.6 °F 72% 30.23 in 10.0 mi West 4.6 mph - N/A   Clear
1:16 AM 51.8 °F - 42.8 °F 71% 30.23 in 9.0 mi Calm Calm - N/A   Clear
1:36 AM 48.2 °F - 42.8 °F 82% 30.23 in 10.0 mi Calm Calm - N/A   Clear
1:56 AM 48.2 °F - 42.8 °F 82% 30.23 in 10.0 mi Calm Calm - N/A   Clear
2:16 AM 51.8 °F - 42.8 °F 71% 30.23 in 10.0 mi Calm Calm - N/A   Clear
2:36 AM 48.2 °F - 41.0 °F 76% 30.23 in 10.0 mi Calm Calm - N/A   Clear
2:56 AM 46.4 °F 45.2 °F 42.8 °F 87% 30.23 in 10.0 mi NW 3.5 mph - N/A   Clear
3:16 AM 48.2 °F - 42.8 °F 82% 30.23 in 10.0 mi WNW 4.6 mph - N/A   Clear
3:36 AM 44.6 °F 42.2 °F 39.2 °F 81% 30.23 in 10.0 mi WNW 4.6 mph - N/A   Clear
3:56 AM 42.8 °F 41.1 °F 37.4 °F 81% 30.23 in 9.0 mi West 3.5 mph - N/A   Clear
4:16 AM 41.0 °F 38.0 °F 37.4 °F 87% 30.23 in 10.0 mi West 4.6 mph - N/A   Clear
4:36 AM 41.0 °F 38.0 °F 37.4 °F 87% 30.23 in 10.0 mi West 4.6 mph - N/A   Clear
4:56 AM 42.8 °F 40.1 °F 39.2 °F 87% 30.23 in 10.0 mi SW 4.6 mph - N/A   Clear
5:16 AM 42.8 °F 40.1 °F 39.2 °F 87% 30.24 in 10.0 mi WSW 4.6 mph - N/A   Clear
5:36 AM 42.8 °F 41.1 °F 39.2 °F 87% 30.24 in 10.0 mi WSW 3.5 mph - N/A   Clear
5:56 AM 41.0 °F - 39.2 °F 93% 30.24 in 10.0 mi Calm Calm - N/A   Scattered Clouds
6:16 AM 42.8 °F - 39.2 °F 87% 30.24 in 10.0 mi Calm Calm - N/A   Mostly Cloudy
6:36 AM 41.0 °F 39.0 °F 39.2 °F 93% 30.25 in 10.0 mi SSW 3.5 mph - N/A   Overcast
6:56 AM 42.8 °F 40.1 °F 41.0 °F 93% 30.25 in 10.0 mi West 4.6 mph - N/A   Overcast
7:16 AM 42.8 °F 41.1 °F 41.0 °F 93% 30.24 in 10.0 mi WSW 3.5 mph - N/A   Overcast
7:36 AM 44.6 °F 42.2 °F 41.0 °F 87% 30.25 in 10.0 mi WSW 4.6 mph - N/A   Overcast
7:56 AM 44.6 °F 41.4 °F 42.8 °F 93% 30.25 in 10.0 mi West 5.8 mph - N/A   Overcast
8:16 AM 44.6 °F 39.2 °F 41.0 °F 87% 30.25 in 9.0 mi WNW 10.4 mph - N/A   Overcast
8:36 AM 44.6 °F 40.2 °F 41.0 °F 87% 30.25 in 9.0 mi WNW 8.1 mph - N/A   Overcast
8:56 AM 44.6 °F 41.4 °F 39.2 °F 81% 30.25 in 10.0 mi West 5.8 mph - N/A   Overcast
9:16 AM 44.6 °F 40.2 °F 39.2 °F 81% 30.25 in 7.0 mi West 8.1 mph - N/A   Overcast
9:36 AM 44.6 °F 39.7 °F 39.2 °F 81% 30.25 in 8.0 mi West 9.2 mph - N/A   Overcast
9:56 AM 44.6 °F 42.2 °F 41.0 °F 87% 30.25 in 8.0 mi West 4.6 mph - N/A   Overcast
10:16 AM 44.6 °F 40.7 °F 41.0 °F 87% 30.25 in 7.0 mi WSW 6.9 mph - N/A   Overcast
10:36 AM 44.6 °F 41.4 °F 41.0 °F 87% 30.25 in 3.0 mi WSW 5.8 mph - N/A   Overcast
10:56 AM 44.6 °F 42.2 °F 41.0 °F 87% 30.25 in 7.0 mi West 4.6 mph - N/A   Overcast
11:16 AM 44.6 °F 41.4 °F 41.0 °F 87% 30.25 in 5.0 mi WSW 5.8 mph - N/A   Overcast
11:36 AM 46.4 °F 41.9 °F 39.2 °F 76% 30.25 in 10.0 mi West 9.2 mph - N/A   Overcast
11:56 AM 46.4 °F 41.9 °F 39.2 °F 76% 30.25 in 10.0 mi West 9.2 mph - N/A   Overcast
12:16 PM 48.2 °F - 37.4 °F 66% 30.25 in 10.0 mi WNW 9.2 mph - N/A   Overcast
12:36 PM 48.2 °F - 37.4 °F 66% 30.24 in 10.0 mi West 6.9 mph - N/A   Overcast
12:56 PM 48.2 °F - 37.4 °F 66% 30.23 in 10.0 mi West 8.1 mph - N/A   Overcast
1:16 PM 51.8 °F - 37.4 °F 58% 30.23 in 10.0 mi WNW 10.4 mph - N/A   Overcast
1:36 PM 51.8 °F - 37.4 °F 58% 30.23 in 10.0 mi West 9.2 mph - N/A   Overcast
1:56 PM 50.0 °F - 37.4 °F 62% 30.24 in 10.0 mi WNW 10.4 mph - N/A   Overcast
2:16 PM 50.0 °F - 37.4 °F 62% 30.23 in 10.0 mi West 8.1 mph - N/A   Overcast
2:36 PM 50.0 °F - 37.4 °F 62% 30.23 in 10.0 mi West 10.4 mph - N/A   Overcast
2:56 PM 48.2 °F - 39.2 °F 71% 30.23 in 10.0 mi West 9.2 mph - N/A   Overcast
3:16 PM 48.2 °F - 39.2 °F 71% 30.23 in 10.0 mi West 9.2 mph - N/A   Overcast
3:36 PM 48.2 °F - 39.2 °F 71% 30.23 in 10.0 mi WNW 10.4 mph - N/A   Overcast
3:56 PM 48.2 °F - 39.2 °F 71% 30.23 in 10.0 mi WNW 10.4 mph - N/A   Overcast
4:16 PM 48.2 °F - 39.2 °F 71% 30.23 in 10.0 mi West 9.2 mph - N/A   Overcast
4:36 PM 50.0 °F - 39.2 °F 66% 30.22 in 10.0 mi West 9.2 mph - N/A   Overcast
4:56 PM 50.0 °F - 37.4 °F 62% 30.22 in 10.0 mi West 6.9 mph 17.3 mph N/A   Overcast
5:16 PM 51.8 °F - 37.4 °F 58% 30.22 in 10.0 mi WNW 8.1 mph - N/A   Overcast
5:36 PM 51.8 °F - 37.4 °F 58% 30.22 in 10.0 mi WNW 8.1 mph - N/A   Overcast
5:56 PM 51.8 °F - 37.4 °F 58% 30.22 in 10.0 mi West 9.2 mph - N/A   Overcast
6:16 PM 51.8 °F - 37.4 °F 58% 30.22 in 10.0 mi West 10.4 mph - N/A   Overcast
6:36 PM 51.8 °F - 35.6 °F 54% 30.22 in 10.0 mi WNW 8.1 mph - N/A   Overcast
6:56 PM 51.8 °F - 35.6 °F 54% 30.21 in 10.0 mi NW 8.1 mph - N/A   Overcast
7:16 PM 51.8 °F - 35.6 °F 54% 30.21 in 10.0 mi WNW 8.1 mph - N/A   Overcast
7:36 PM 51.8 °F - 35.6 °F 54% 30.21 in 10.0 mi West 11.5 mph 17.3 mph N/A   Overcast
7:56 PM 51.8 °F - 35.6 °F 54% 30.20 in 10.0 mi WNW 8.1 mph - N/A   Overcast
8:16 PM 51.8 °F - 35.6 °F 54% 30.20 in 10.0 mi NW 10.4 mph - N/A   Overcast
8:36 PM 51.8 °F - 35.6 °F 54% 30.20 in 10.0 mi WNW 12.7 mph 19.6 mph N/A   Overcast
8:56 PM 50.0 °F - 37.4 °F 62% 30.19 in 10.0 mi WNW 9.2 mph - N/A   Overcast
9:16 PM 50.0 °F - 35.6 °F 58% 30.19 in 10.0 mi WNW 4.6 mph - N/A   Overcast
9:36 PM 51.8 °F - 33.8 °F 50% 30.19 in 10.0 mi WNW 8.1 mph - N/A   Overcast
9:56 PM 50.0 °F - 33.8 °F 54% 30.20 in 10.0 mi NNW 9.2 mph - N/A   Overcast
10:16 PM 48.2 °F - 35.6 °F 62% 30.20 in 10.0 mi WNW 5.8 mph - N/A   Overcast
10:36 PM 48.2 °F - 33.8 °F 58% 30.20 in 10.0 mi West 5.8 mph - N/A   Overcast
10:56 PM 48.2 °F - 33.8 °F 58% 30.20 in 10.0 mi WNW 10.4 mph 16.1 mph N/A   Mostly Cloudy
11:16 PM 48.2 °F - 33.8 °F 58% 30.21 in 10.0 mi WNW 9.2 mph - N/A   Clear
11:36 PM 46.4 °F 41.9 °F 33.8 °F 62% 30.21 in 10.0 mi WNW 9.2 mph - N/A   Clear
11:56 PM 46.4 °F 42.4 °F 33.8 °F 62% 30.21 in 10.0 mi WNW 8.1 mph - N/A   Clear